Location: Benque
(43.2594°N, 0.9178°E)
Time: 18:04:35
(UTC+00:00)

Ariane Rocket - Pass Details

Date: 24 January 2020
Orbit: 761 x 769 km, 98.7° (Epoch: 22 February)

Event Time Altitude Azimuth Distance (km) Brightness Sun altitude
Rises 18:47:18 0° 153° (SSE) 3,214 6.0 -20.0°
Reaches altitude 10° 18:49:37 10° 150° (SSE) 2,293 5.2 -20.4°
Maximum altitude 18:54:34 59° 72° (ENE) 887 2.9 -21.3°
Drops below altitude 10° 18:59:34 10° 354° (N) 2,315 5.5 -22.2°
Sets 19:01:54 0° 350° (N) 3,247 6.3 -22.6°
